Home > Weather > Monticello > Past weeks

Flag for USA Past Weather in Monticello, Kentucky, USA — Yesterday and Last 2 Weeks

Now
85 °F

Sunny.


Feels Like: 89 °F
Forecast: 72 / 90 °F
Wind: 6 mph from South

Location: London-Corbin Airport-Magee Field

Current Time: Jul 23, 2016 at 1:07:40 PM

Latest Report: Jul 23, 2016 at 11:53 AM


Visibility: 10 mi

Pressure: 30.01 "Hg

Humidity: 61%

Dew Point: 70 °F

Location of MonticelloLocation

Past Weather in Monticello — Graph

°F

Monticello Temperature Yesterday

Maximum temperature yesterday: 90 °F (at 2:53 PM)
Minimum temperature yesterday: 67 °F (at 5:53 AM)
Average temperature yesterday: 78 °F

High & Low Weather Summary for the Past Weeks

 TemperatureHumidityPressure
High92 °F (Jul 21, 1:53 PM)97% (Jul 10, 5:53 AM)30.26 "Hg (Jul 10, 5:53 AM)
Low64 °F (Jul 10, 5:53 AM)31% (Jul 21, 5:53 PM)29.89 "Hg (Jul 8, 2:53 PM)
Average77 °F74%30.08 "Hg
* Reported Jul 8 11:53 AM — Jul 23 11:53 AM, Monticello, Weather by CustomWeather, © 2016

Note: Actual official high and low records may vary slightly from our data, if they occured in-between our weather recording intervals... More about our weather records

Advertising

Monticello Weather History for the Previous 24 Hours

Scroll right to see more
 ConditionsComfort  
Time TempWeatherWind HumidityBarometerVisibility
11:53 AM
Sat, Jul 23
85 °FSunny.6 mph61%30.01 "Hg10 mi
10:53 AM84 °FSunny.3 mph63%30.02 "Hg10 mi
9:53 AM81 °FSunny.No wind69%30.03 "Hg10 mi
8:53 AM78 °FSunny.No wind76%30.03 "Hg10 mi
7:53 AM75 °FPassing clouds.No wind82%30.01 "Hg10 mi
6:53 AM72 °FClear.No wind87%30.01 "Hg9 mi
5:53 AM72 °FClear.3 mph91%30.01 "Hg7 mi
4:53 AM73 °FOvercast.No wind88%30.00 "Hg9 mi
3:53 AM73 °FOvercast.No wind88%30.00 "Hg10 mi
2:53 AM73 °FPassing clouds.No wind88%30.01 "Hg10 mi
1:53 AM73 °FPassing clouds.5 mph88%30.02 "Hg10 mi
12:53 AM74 °FPassing clouds.No wind88%30.02 "Hg10 mi
11:53 PM
Fri, Jul 22
74 °FClear.3 mph85%30.02 "Hg10 mi
10:53 PM75 °FClear.3 mph82%30.03 "Hg10 mi
9:53 PM74 °FPassing clouds.8 mph88%30.03 "Hg10 mi
8:53 PM78 °FThundershowers. Mostly cloudy.14 mph66%30.01 "Hg10 mi
7:53 PM84 °FSunny.3 mph63%29.99 "Hg10 mi
6:53 PM88 °FPassing clouds.6 mph55%29.99 "Hg10 mi
5:53 PM90 °FBroken clouds.5 mph50%29.99 "Hg10 mi
4:53 PM88 °FPassing clouds.5 mph50%30.01 "Hg10 mi
3:53 PM89 °FSunny.5 mph48%30.03 "Hg10 mi
2:53 PM90 °FSunny.3 mph48%30.06 "Hg10 mi
1:53 PM87 °FPassing clouds.No wind53%30.09 "Hg10 mi
Weather by CustomWeather, © 2016

See weather overviewHow to use our weather pages